Weather History for Ingonish Beach, NS

Change the Weather History Date:

Tuesday, November 13, 2012

  Actual Average Record
Temperature  
Mean Temperature 62 °F -  
Max Temperature 68 °F - - ()
Min Temperature 57 °F - - ()
Degree Days  
Heating Degree Days 2    
Growing Degree Days 12 (Base 50)    
Moisture  
Dew Point 51 °F    
Average Humidity 66    
Maximum Humidity 78    
Minimum Humidity 50    
Precipitation  
Precipitation 0.08 in - - ()
Sea Level Pressure  
Sea Level Pressure 30.26 in    
Wind  
Wind Speed 10 mph ()    
Max Wind Speed 15 mph    
Max Gust Speed 29 mph    
T = Trace of Precipitation, MM = Missing Value Source: Averaged Metar Reports

Daily Weather History Graph

Daily Weather History Graph

Search for Another Location

Airport:

Trip Planner

Search our weather history database for the weather conditions in past years. The results will help you decide how hot, cold, wet, or windy it might be!

Date:

Astronomy

Nov. 13, 2012 Rise Set
Actual Time 7:01 AM AST 4:29 PM AST
Civil Twilight 6:28 AM AST 5:02 PM AST
Nautical Twilight 5:52 AM AST 5:39 PM AST
Astronomical Twilight 5:16 AM AST 6:14 PM AST
Moon 6:34 AM AST (11/13) 4:17 PM AST (11/13)
Length of Visible Light 10h 33m
Length of Day
9h 27m
Waning Crescent, 0% of the Moon is Illuminated
Nov 13
Waning Crescent
Nov 13
New
Nov 20
First Quarter
Nov 28
Full
Dec 6
Last Quarter

Hourly Weather History & Observations

Time (AST) Temp. Dew Point Humidity Pressure Visibility Wind Dir Wind Speed Gust Speed Precip Events Conditions
12:00 AM 59.2 °F 44.4 °F 58% 30.32 in - West 11.5 mph 23.0 mph N/A   Unknown
1:00 AM 58.6 °F 45.5 °F 62% 30.32 in - West 11.5 mph 19.6 mph N/A   Unknown
2:00 AM 59 °F 47 °F 54% 30.32 in - West 10.4 mph - -  
2:00 AM 58.6 °F 46.8 °F 65% 30.32 in - West 10.4 mph - N/A   Unknown
3:00 AM 58.8 °F 49.6 °F 72% 30.31 in - WSW 6.9 mph - N/A   Unknown
4:00 AM 59.2 °F 48.7 °F 68% 30.30 in - WSW 10.4 mph 20.7 mph N/A   Unknown
5:00 AM 58.3 °F 43.5 °F 58% 30.30 in - WSW 13.8 mph 23.0 mph N/A   Unknown
6:00 AM 58.3 °F 45.7 °F 63% 30.30 in - WSW 12.7 mph 23.0 mph N/A   Unknown
7:00 AM 59.5 °F 48.9 °F 68% 30.31 in - West 11.5 mph 23.0 mph N/A   Unknown
8:00 AM 59 °F 50 °F 64% 30.32 in - SW 6.9 mph - -  
8:00 AM 59.4 °F 50.2 °F 72% 30.32 in - SW 6.9 mph - N/A   Unknown
9:00 AM 62.4 °F 52.0 °F 69% 30.32 in - SW 11.5 mph 21.9 mph N/A   Unknown
10:00 AM 65.7 °F 52.2 °F 62% 30.30 in - SW 10.4 mph 18.4 mph N/A   Unknown
11:00 AM 67.8 °F 52.5 °F 58% 30.27 in - SW 8.1 mph - N/A   Unknown
12:00 PM 67.3 °F 52.9 °F 60% 30.25 in - WSW 11.5 mph 23.0 mph N/A   Unknown
1:00 PM 67.6 °F 52.7 °F 59% 30.23 in - WSW 10.4 mph 20.7 mph N/A   Unknown
2:00 PM 67 °F 53 °F 50% 30.21 in - SW 15.0 mph - -  
2:00 PM 67.3 °F 52.5 °F 59% 30.21 in - SW 15.0 mph 28.8 mph N/A   Unknown
3:00 PM 66.4 °F 52.5 °F 61% 30.20 in - SW 10.4 mph 25.3 mph N/A   Unknown
4:00 PM 63.7 °F 53.1 °F 68% 30.20 in - SW 11.5 mph 23.0 mph N/A   Unknown
5:00 PM 62.1 °F 53.8 °F 74% 30.20 in - SW 11.5 mph 20.7 mph N/A   Unknown
6:00 PM 62.4 °F 53.6 °F 73% 30.21 in - SW 11.5 mph 18.4 mph N/A   Unknown
7:00 PM 62.6 °F 54.1 °F 74% 30.20 in - SW 11.5 mph 23.0 mph N/A   Unknown
8:00 PM 63 °F 54 °F 66% 30.20 in - SW 11.5 mph - -  
8:00 PM 62.8 °F 54.3 °F 74% 30.20 in - SW 11.5 mph 23.0 mph N/A   Unknown
9:00 PM 63.0 °F 55.0 °F 75% 30.21 in - SW 9.2 mph 18.4 mph N/A   Unknown
10:00 PM 62.4 °F 55.4 °F 78% 30.21 in - SW 6.9 mph - N/A   Unknown
11:00 PM 63.0 °F 55.9 °F 78% 30.19 in - SSW 6.9 mph - N/A   Unknown